Time,TemperatureF,DewpointF,PressureIn,WindDirection,WindDirectionDegrees,WindSpeedMPH,WindSpeedGustMPH,Humidity,HourlyPrecipIn,Conditions,Clouds,dailyrainin,SoftwareType,DateUTC
2013-01-28 08:34:00,33.0,-99.9,-100.00,East,95,2.0,5.0,-999,-99.99,,,-99.99,,2013-01-28 13:34:00,
2013-01-28 08:43:00,33.0,-99.9,-100.00,East,95,2.0,5.0,-999,-99.99,,,-99.99,,2013-01-28 13:43:00,
2013-01-28 08:53:00,33.0,-99.9,-100.00,ENE,65,2.0,4.0,-999,-99.99,,,-99.99,,2013-01-28 13:53:00,
2013-01-28 09:03:00,33.0,-99.9,-100.00,East,95,3.0,4.0,-999,-99.99,,,-99.99,,2013-01-28 14:03:00,
2013-01-28 09:12:00,33.0,-99.9,-100.00,East,95,3.0,4.0,-999,-99.99,,,-99.99,,2013-01-28 14:12:00,
2013-01-28 09:23:00,33.0,-99.9,-100.00,ENE,70,1.0,4.0,-999,-99.99,,,-99.99,,2013-01-28 14:23:00,
2013-01-28 09:33:00,33.0,-99.9,-100.00,ENE,60,1.0,4.0,-999,-99.99,,,-99.99,,2013-01-28 14:33:00,
2013-01-28 09:43:00,33.0,-99.9,-100.00,ENE,60,1.0,4.0,-999,-99.99,,,-99.99,,2013-01-28 14:43:00,
2013-01-28 09:53:00,33.0,-99.9,-100.00,NE,45,1.0,4.0,-999,-99.99,,,-99.99,,2013-01-28 14:53:00,
2013-01-28 10:03:00,33.0,-99.9,-100.00,ENE,60,3.0,5.0,-999,-99.99,,,-99.99,,2013-01-28 15:03:00,
2013-01-28 10:13:00,33.0,-99.9,-100.00,ENE,60,3.0,5.0,-999,-99.99,,,-99.99,,2013-01-28 15:13:00,
2013-01-28 10:24:00,33.0,-99.9,-100.00,NNE,20,2.0,4.0,-999,-99.99,,,-99.99,,2013-01-28 15:24:00,
2013-01-28 10:34:00,34.0,-99.9,-100.00,NE,35,3.0,6.0,-999,-99.99,,,-99.99,,2013-01-28 15:34:00,
2013-01-28 10:44:00,34.0,-99.9,-100.00,NE,35,3.0,6.0,-999,-99.99,,,-99.99,,2013-01-28 15:44:00,
2013-01-28 10:54:00,34.0,-99.9,-100.00,NNE,15,3.0,4.0,-999,-99.99,,,-99.99,,2013-01-28 15:54:00,
2013-01-28 11:04:00,34.0,-99.9,-100.00,NNE,20,5.0,6.0,-999,-99.99,,,-99.99,,2013-01-28 16:04:00,
2013-01-28 11:13:00,34.0,-99.9,-100.00,NNE,20,5.0,6.0,-999,-99.99,,,-99.99,,2013-01-28 16:13:00,
2013-01-28 11:23:00,34.0,-99.9,-100.00,NNE,20,3.0,6.0,-999,-99.99,,,-99.99,,2013-01-28 16:23:00,
2013-01-28 11:33:00,34.0,-99.9,-100.00,NNE,20,3.0,6.0,-999,-99.99,,,-99.99,,2013-01-28 16:33:00,
2013-01-28 11:43:00,34.0,-99.9,-100.00,NNE,20,3.0,6.0,-999,-99.99,,,-99.99,,2013-01-28 16:43:00,
2013-01-28 11:53:00,34.0,-99.9,-100.00,North,350,4.0,4.0,-999,-99.99,,,-99.99,,2013-01-28 16:53:00,
2013-01-28 12:02:00,34.0,-99.9,-100.00,NNW,340,2.0,4.0,-999,-99.99,,,-99.99,,2013-01-28 17:02:00,
2013-01-28 12:12:00,34.0,-99.9,-100.00,NNW,340,2.0,4.0,-999,-99.99,,,-99.99,,2013-01-28 17:12:00,
2013-01-28 12:23:00,35.0,-99.9,-100.00,North,10,4.0,4.0,-999,-99.99,,,-99.99,,2013-01-28 17:23:00,
2013-01-28 12:33:00,35.0,-99.9,-100.00,North,350,4.0,5.0,-999,-99.99,,,-99.99,,2013-01-28 17:33:00,
2013-01-28 12:42:00,35.0,-99.9,-100.00,North,350,4.0,5.0,-999,-99.99,,,-99.99,,2013-01-28 17:42:00,
2013-01-28 12:53:00,35.0,-99.9,-100.00,NNW,335,4.0,6.0,-999,-99.99,,,-99.99,,2013-01-28 17:53:00,
2013-01-28 13:03:00,36.0,-99.9,-100.00,NNW,335,2.0,6.0,-999,-99.99,,,-99.99,,2013-01-28 18:03:00,
2013-01-28 13:13:00,36.0,-99.9,-100.00,NNW,335,2.0,6.0,-999,-99.99,,,-99.99,,2013-01-28 18:13:00,
2013-01-28 13:23:00,36.0,36.0,-100.00,North,5,5.0,6.0,99,-99.99,,,-99.99,,2013-01-28 18:23:00,
2013-01-28 13:33:00,36.0,36.0,-100.00,North,5,3.0,5.0,98,-99.99,,,-99.99,,2013-01-28 18:33:00,
2013-01-28 13:42:00,36.0,36.0,-100.00,North,5,3.0,5.0,98,-99.99,,,-99.99,,2013-01-28 18:42:00,
2013-01-28 13:52:00,37.0,36.0,-100.00,North,10,3.0,6.0,97,-99.99,,,-99.99,,2013-01-28 18:52:00,
2013-01-28 14:02:00,37.0,36.0,-100.00,North,10,4.0,7.0,96,-99.99,,,-99.99,,2013-01-28 19:02:00,
2013-01-28 14:12:00,37.0,36.0,-100.00,North,10,4.0,7.0,96,-99.99,,,-99.99,,2013-01-28 19:12:00,
2013-01-28 14:22:00,38.0,36.0,-100.00,NNE,20,4.0,7.0,94,-99.99,,,-99.99,,2013-01-28 19:22:00,
2013-01-28 14:33:00,39.0,37.0,-100.00,ENE,60,3.0,4.0,93,-99.99,,,-99.99,,2013-01-28 19:33:00,
2013-01-28 14:42:00,39.0,37.0,-100.00,ENE,60,3.0,4.0,93,-99.99,,,-99.99,,2013-01-28 19:42:00,
2013-01-28 14:52:00,39.0,37.0,-100.00,NE,55,4.0,7.0,92,-99.99,,,-99.99,,2013-01-28 19:52:00,
2013-01-28 15:02:00,39.0,36.0,-100.00,NNE,15,3.0,4.0,90,-99.99,,,-99.99,,2013-01-28 20:02:00,
2013-01-28 15:12:00,39.0,36.0,-100.00,NNE,15,3.0,4.0,90,-99.99,,,-99.99,,2013-01-28 20:12:00,
2013-01-28 15:22:00,38.0,35.0,-100.00,North,5,5.0,7.0,90,-99.99,,,-99.99,,2013-01-28 20:22:00,
2013-01-28 15:33:00,38.0,35.0,-100.00,NNE,15,3.0,7.0,88,-99.99,,,-99.99,,2013-01-28 20:33:00,
2013-01-28 15:42:00,38.0,35.0,-100.00,NNE,15,3.0,7.0,88,-99.99,,,-99.99,,2013-01-28 20:42:00,
2013-01-28 15:52:00,39.0,35.0,-100.00,NNW,345,1.0,4.0,87,-99.99,,,-99.99,,2013-01-28 20:52:00,
2013-01-28 16:03:00,38.0,35.0,-100.00,NNE,15,2.0,3.0,88,-99.99,,,-99.99,,2013-01-28 21:03:00,
2013-01-28 16:12:00,38.0,35.0,-100.00,NNE,15,2.0,3.0,88,-99.99,,,-99.99,,2013-01-28 21:12:00,
2013-01-28 16:22:00,38.0,35.0,-100.00,North,5,2.0,3.0,89,-99.99,,,-99.99,,2013-01-28 21:22:00,
2013-01-28 16:33:00,39.0,37.0,-100.00,NE,40,4.0,5.0,91,-99.99,,,-99.99,,2013-01-28 21:33:00,
2013-01-28 16:43:00,39.0,37.0,-100.00,NE,40,4.0,5.0,91,-99.99,,,-99.99,,2013-01-28 21:43:00,
2013-01-28 16:52:00,38.0,36.0,-100.00,NE,40,5.0,10.0,92,-99.99,,,-99.99,,2013-01-28 21:52:00,
2013-01-28 17:02:00,38.0,36.0,-100.00,ENE,70,2.0,8.0,93,-99.99,,,-99.99,,2013-01-28 22:02:00,
2013-01-28 17:12:00,38.0,36.0,-100.00,ENE,70,2.0,8.0,93,-99.99,,,-99.99,,2013-01-28 22:12:00,
2013-01-28 17:23:00,37.0,36.0,-100.00,ENE,75,4.0,7.0,94,-99.99,,,-99.99,,2013-01-28 22:23:00,
2013-01-28 17:32:00,37.0,36.0,-100.00,ENE,70,2.0,6.0,94,-99.99,,,-99.99,,2013-01-28 22:32:00,
2013-01-28 17:42:00,37.0,36.0,-100.00,ENE,70,2.0,6.0,94,-99.99,,,-99.99,,2013-01-28 22:42:00,
2013-01-28 17:52:00,37.0,36.0,-100.00,East,95,1.0,3.0,94,-99.99,,,-99.99,,2013-01-28 22:52:00,
2013-01-28 18:02:00,37.0,35.0,-100.00,East,85,3.0,4.0,94,-99.99,,,-99.99,,2013-01-28 23:02:00,
2013-01-28 18:12:00,37.0,35.0,-100.00,East,85,3.0,4.0,94,-99.99,,,-99.99,,2013-01-28 23:12:00,
2013-01-28 18:22:00,37.0,36.0,-100.00,ESE,105,3.0,4.0,95,-99.99,,,-99.99,,2013-01-28 23:22:00,
2013-01-28 18:32:00,37.0,36.0,-100.00,East,100,4.0,5.0,96,-99.99,,,-99.99,,2013-01-28 23:32:00,
2013-01-28 18:42:00,37.0,36.0,-100.00,East,100,4.0,5.0,96,-99.99,,,-99.99,,2013-01-28 23:42:00,
2013-01-28 18:52:00,36.0,35.0,-100.00,ESE,105,2.0,4.0,96,-99.99,,,-99.99,,2013-01-28 23:52:00,
2013-01-28 19:02:00,36.0,35.0,-100.00,ESE,120,1.0,4.0,96,-99.99,,,-99.99,,2013-01-29 00:02:00,
2013-01-28 19:12:00,36.0,35.0,-100.00,ESE,120,1.0,4.0,96,-99.99,,,-99.99,,2013-01-29 00:12:00,
2013-01-28 19:22:00,36.0,35.0,-100.00,ESE,115,3.0,5.0,96,-99.99,,,-99.99,,2013-01-29 00:22:00,
2013-01-28 19:32:00,36.0,36.0,-100.00,SE,140,2.0,4.0,97,-99.99,,,-99.99,,2013-01-29 00:32:00,
2013-01-28 19:42:00,36.0,36.0,-100.00,SE,140,2.0,4.0,97,-99.99,,,-99.99,,2013-01-29 00:42:00,
2013-01-28 19:52:00,36.0,36.0,-100.00,SE,140,4.0,4.0,97,-99.99,,,-99.99,,2013-01-29 00:52:00,
2013-01-28 20:02:00,36.0,35.0,-100.00,ESE,105,4.0,5.0,97,-99.99,,,-99.99,,2013-01-29 01:02:00,
2013-01-28 20:12:00,36.0,35.0,-100.00,ESE,105,4.0,5.0,97,-99.99,,,-99.99,,2013-01-29 01:12:00,
2013-01-28 20:23:00,36.0,36.0,-100.00,SSW,200,2.0,4.0,98,-99.99,,,-99.99,,2013-01-29 01:23:00,
2013-01-28 20:32:00,36.0,36.0,-100.00,SSW,200,1.0,4.0,98,-99.99,,,-99.99,,2013-01-29 01:32:00,
2013-01-28 20:42:00,36.0,36.0,-100.00,SSW,200,1.0,4.0,98,-99.99,,,-99.99,,2013-01-29 01:42:00,
2013-01-28 20:52:00,36.0,36.0,-100.00,SSW,210,0.0,4.0,98,-99.99,,,-99.99,,2013-01-29 01:52:00,
2013-01-28 21:02:00,36.0,35.0,-100.00,SSW,205,1.0,4.0,98,-99.99,,,-99.99,,2013-01-29 02:02:00,
2013-01-28 21:12:00,36.0,35.0,-100.00,SSW,205,1.0,4.0,98,-99.99,,,-99.99,,2013-01-29 02:12:00,
2013-01-28 21:22:00,36.0,36.0,-100.00,SSE,165,1.0,5.0,99,-99.99,,,-99.99,,2013-01-29 02:22:00,
2013-01-28 21:33:00,36.0,36.0,-100.00,SSE,165,2.0,4.0,99,-99.99,,,-99.99,,2013-01-29 02:33:00,
2013-01-28 21:42:00,36.0,36.0,-100.00,SSE,165,2.0,4.0,99,-99.99,,,-99.99,,2013-01-29 02:42:00,
2013-01-28 21:52:00,36.0,36.0,-100.00,South,170,2.0,3.0,99,-99.99,,,-99.99,,2013-01-29 02:52:00,
2013-01-28 22:03:00,36.0,-99.9,-100.00,SSE,155,3.0,4.0,-999,-99.99,,,-99.99,,2013-01-29 03:03:00,
2013-01-28 22:12:00,36.0,-99.9,-100.00,SSE,155,3.0,4.0,-999,-99.99,,,-99.99,,2013-01-29 03:12:00,
2013-01-28 22:22:00,36.0,-99.9,-100.00,SSE,150,6.0,8.0,-999,-99.99,,,-99.99,,2013-01-29 03:22:00,
2013-01-28 22:32:00,36.0,-99.9,-100.00,SSE,155,5.0,8.0,-999,-99.99,,,-99.99,,2013-01-29 03:32:00,
2013-01-28 22:42:00,36.0,-99.9,-100.00,SSE,155,5.0,8.0,-999,-99.99,,,-99.99,,2013-01-29 03:42:00,
2013-01-28 22:53:00,36.0,-99.9,-100.00,South,170,6.0,10.0,-999,-99.99,,,-99.99,,2013-01-29 03:53:00,
2013-01-28 23:03:00,36.0,-99.9,-100.00,South,175,7.0,10.0,-999,-99.99,,,-99.99,,2013-01-29 04:03:00,
2013-01-28 23:12:00,36.0,-99.9,-100.00,South,175,7.0,10.0,-999,-99.99,,,-99.99,,2013-01-29 04:12:00,
2013-01-28 23:22:00,36.0,-99.9,-100.00,South,170,6.0,12.0,-999,-99.99,,,-99.99,,2013-01-29 04:22:00,
2013-01-28 23:32:00,36.0,-99.9,-100.00,South,175,5.0,10.0,-999,-99.99,,,-99.99,,2013-01-29 04:32:00,
2013-01-28 23:42:00,36.0,-99.9,-100.00,South,175,5.0,10.0,-999,-99.99,,,-99.99,,2013-01-29 04:42:00,
2013-01-28 23:52:00,36.0,-99.9,-100.00,South,185,5.0,11.0,-999,-99.99,,,-99.99,,2013-01-29 04:52:00,